Regional Weather Roundup
Issued by NWS

Home | Current Version | Previous Version | Graphics & Text | Print | Product List | Glossary On
Versions: 1 2 3 4 5 6 7 8 9 10 11 12 13 14 15 16 17 18 19 20 21 22 23 24 25 26 27 28 29 30 31 32 33 34 35 36 37 38 39 40 41 42 43 44 45 46 47 48 49 50
000
ASUS45 KABQ 291401
RWRNM
NEW MEXICO REGIONAL WEATHER ROUNDUP
NATIONAL WEATHER SERVICE ALBUQUERQUE NM
800 AM MDT WED JUL 29 2015

NOTE: "FAIR" MEANS FEW OR NO CLOUDS BELOW 12,000 FEET AGL WITH NO
       SIGNIFICANT WEATHER OR OBSTRUCTIONS TO VISION.

      THIS PRODUCT IS RELEASED AS TWO VERSIONS.  ONE VERSION NEAR
      THE TOP OF THE HOUR CONTAINING PRELIMINARY DATA FROM ALBUQUERQUE
      AND OTHER STATIONS.  A FINAL VERSION WITH ADDITIONAL DATA IS
      ISSUED ABOUT 10 MINUTES AFTER THE HOUR.

NMZ501-503-504-510>518-291500-
NORTHWEST PLATEAU/NORTHCENTRAL MOUNTAINS

CITY           SKY/WX    TMP DP  RH WIND       PRES   REMARKS
FARMINGTON     SUNNY     68  37  32 E5        30.25R
LOS ALAMOS     CLOUDY    63  52  67 S8        30.42R
SANTA FE       CLOUDY    65  54  67 S6        30.35R
TAOS           MOSUNNY   64  45  48 SE6       30.43R
ANGEL FIRE     FOG       49  48  97 CALM      30.51S VSB 1/4

$$
NMZ402-403-502-505>509-291500-
WESTCENTRAL MOUNTAINS/SOUTHWEST MOUNTAINS

CITY           SKY/WX    TMP DP  RH WIND       PRES   REMARKS
GALLUP         CLOUDY    70  49  47 SE9       30.34R
GRANTS         CLOUDY    66  57  73 CALM      30.37R
SILVER CITY      N/A     68  57  68 CALM      30.29S

$$
NMZ407-409-411-412-291500-
SOUTHERN DESERTS

CITY           SKY/WX    TMP DP  RH WIND       PRES   REMARKS
DEMING         CLOUDY    72  61  68 NE3       30.20S
HOLLOMAN AFB   PTSUNNY   71  64  80 E5        30.20R
ALAMOGORDO     PTSUNNY   70  63  78 CALM      30.23R
T OR C         CLOUDY    71  63  75 CALM      30.24R

$$
NMZ519>523-291500-
CENTRAL VALLEYS/CENTRAL HIGHLANDS

CITY           SKY/WX    TMP DP  RH WIND       PRES   REMARKS
ALBUQUERQUE    CLOUDY    72  55  55 NW5       30.30R
DOUBLE EAGLE   CLOUDY    66  57  72 S6        30.33S
MORIARTY ARPT    N/A     63  56  79 CALM      30.37R
CLINES CORNERS PTSUNNY   66  53  63 W5        30.39R
BELEN          FAIR      71  58  61 SE5       30.29R
SOCORRO        NOT AVBL

$$
NMZ524>526-539-540-291500-
SOUTHCENTRAL MOUNTAINS

CITY           SKY/WX    TMP DP  RH WIND       PRES   REMARKS
RUIDOSO          N/A    N/A N/A N/A MISG        N/A

$$
NMZ527>531-291500-
NORTHEAST HIGHLANDS/NORTHEAST PLAINS

CITY           SKY/WX    TMP DP  RH WIND       PRES   REMARKS
LAS VEGAS      CLOUDY    60  55  83 NE3       30.40R
RATON          SUNNY     65  55  70 E5        30.36R
CLAYTON        SUNNY     69  60  73 VRB5      30.32R

$$
NMZ532>537-291500-
EASTCENTRAL PLAINS

CITY           SKY/WX    TMP DP  RH WIND       PRES   REMARKS
TUCUMCARI      MOSUNNY   70  65  84 CALM      30.24R
CANNON AFB     MOSUNNY   71  65  81 NE7       30.24R
CLOVIS AIRPORT SUNNY     70  64  83 N6        30.25R

$$
NMZ028-029-538-291500-
SOUTHEAST PLAINS

CITY           SKY/WX    TMP DP  RH WIND       PRES   REMARKS
ROSWELL        PTSUNNY   74  65  73 NE8       30.18R
ARTESIA        PTSUNNY   75  68  78 CALM      30.19R
CARLSBAD       PTSUNNY   78  65  63 N8        30.15R
HOBBS          SUNNY     73  61  64 N14       30.19R


$$



USA.gov is the U.S. government's official web portal to all federal, state and local government web resources and services.